Regional Weather Roundup
Issued by NWS

Home | Current Version | Previous Version | Text Only | Print | Product List | Glossary Off
Versions: 1 2 3 4 5 6 7 8 9 10 11 12 13 14 15 16 17 18 19 20 21 22 23 24 25 26 27 28 29 30 31 32 33 34 35 36 37 38 39 40 41 42 43 44 45 46 47 48 49 50

000
ASUS43 KOAX 020810
RWRNE

WEATHER ROUNDUP FOR NEBRASKA
NATIONAL WEATHER SERVICE OMAHA NE
300 AM CDT THU OCT 02 2014

NOTES: SATELLITE DATA IS BEING USED TO AUGMENT CLOUD COVER ABOVE
       12000 FEET.
       "FAIR" INDICATES FEW OR NO CLOUDS BELOW 12,000 FEET WITH NO
       SIGNIFICANT WEATHER AND/OR OBSTRUCTIONS TO VISIBILITY.

  * THESE STATIONS DO NOT REPORT WEATHER SUCH AS RAIN...SNOW OR FOG.

NEZ001>004-019>022-054>056-020900-
NEBRASKA PANHANDLE

CITY           SKY/WX    TMP DP  RH WIND       PRES   REMARKS
SCOTTSBLUFF    MOCLDY    41  40  96 NW5       30.07R
ALLIANCE       CLOUDY    46  45  96 NW8       30.02R
CHADRON        CLEAR     42  41  96 SW8       30.03R
KIMBALL        MOCLDY    40  39  98 NW9       30.05R WCI  34
SIDNEY         MOCLDY    44  42  93 NW9       30.04R
$$

NEZ057>060-069>072-079>082-020900-
SOUTHWEST NEBRASKA

CITY           SKY/WX    TMP DP  RH WIND       PRES   REMARKS
NORTH PLATTE   LGT RAIN  51  48  89 NE12      29.95R
IMPERIAL       LGT RAIN  50  47  89 N13       29.97S
LEXINGTON      CLOUDY    53  50  90 N12G18    29.90R
MCCOOK         LGT RAIN  53  49  86 N21G29    29.92R
OGALLALA       CLOUDY    51  47  89 N8        30.00R
$$

NEZ005>010-023>029-035>040-094-020900-
NORTH CENTRAL NEBRASKA

CITY           SKY/WX    TMP DP  RH WIND       PRES   REMARKS
VALENTINE      LGT RAIN  50  47  89 NW3       29.97R
AINSWORTH      RAIN      50  49  97 NW6       29.97S
BROKEN BOW     LGT RAIN  53  50  89 N21G30    29.89F
O`NEILL        RAIN      53  52  97 NW16G22   29.95R
ORD            RAIN      53  50  89 N15G24    29.91S FOG
THEDFORD       DRIZZLE   51  49  96 N13       29.96F
$$

NEZ041-046>049-061>064-073>077-083>087-020900-
SOUTH CENTRAL NEBRASKA

CITY           SKY/WX    TMP DP  RH WIND       PRES   REMARKS
GRAND ISLAND   TSTM      57  54  89 NW21G30   29.90R FOG
AURORA         RAIN      60  57  91 W16G24    29.89R
HASTINGS       LGT RAIN  57  53  86 N21G29    29.85F
HEBRON         PTCLDY    63  60  88 NE6       29.76F
HOLDREGE       CLOUDY    53  50  90 N17G24    29.87S
KEARNEY *      CLOUDY    54  50  87 NW23      29.88F
YORK           MOCLDY    59  59 100 NW8       29.81R
$$

NEZ011>018-030>034-042>045-020900-
NORTHEAST NEBRASKA

CITY           SKY/WX    TMP DP  RH WIND       PRES   REMARKS
NORFOLK        CLOUDY    59  53  80 N9        29.83R
ALBION         RAIN      55  52  88 NW15      29.88R
BLAIR          FOG       64  63  94 CALM      29.77R VSB 1/4
COLUMBUS *     CLOUDY    61  54  77 N7        29.79F
FREMONT        MOCLDY    62  60  94 CALM      29.78R FOG
TEKAMAH        MOCLDY    63  61  93 N3        29.77S FOG
WAYNE          CLOUDY    56  54  90 N5        29.82S
$$

NEZ050>053-065>068-078-088>093-020900-
SOUTHEAST NEBRASKA

CITY           SKY/WX    TMP DP  RH WIND       PRES   REMARKS
LINCOLN        CLOUDY    64  61  90 CALM      29.77F
OMAHA EPPLEY   FOG       64  63  96 CALM      29.76S VSB 1/4
BEATRICE       CLOUDY    64  63  98 NE5       29.76R FOG
FALLS CITY     CLOUDY    64  63  96 E3        29.73F FOG
NEBRASKA CITY  CLOUDY    66  66 100 CALM      29.76F FOG
PLATTSMOUTH    FOG       64  62  94 SE3       29.76S VSB 1/4
$$

NEZ044-045-051>053-067-020900-
OMAHA AREA

CITY           SKY/WX    TMP DP  RH WIND       PRES   REMARKS
OMAHA EPPLEY   FOG       64  63  96 CALM      29.76S VSB 1/4
BLAIR          FOG       64  63  94 CALM      29.77R VSB 1/4
FREMONT        MOCLDY    62  60  94 CALM      29.78R FOG
MILLARD        CLOUDY    65  64  96 SE5       29.76S FOG
OFFUTT AFB     CLOUDY    64  64 100 SE3       29.76S FOG
PLATTSMOUTH    FOG       64  62  94 SE3       29.76S VSB 1/4
WAHOO          FAIR      61  58  91 CALM      29.78R FOG
$$



USA.gov is the U.S. government's official web portal to all federal, state and local government web resources and services.